View from above orbital plane
|
View from above satellite
|
Ground track
|
The orbit data is extracted from the following two-line orbital elements,
1 15398U 84118A 18114.23982184 .00000013 00000-0 -29918-5 0 9999
2 15398 82.9502 171.5348 0032873 142.9739 277.6914 13.73703744676555
Epoch (UTC): | 24 April 2018 05:45:20 |
Eccentricity: | 0.0032873 |
inclination: | 82.9502° |
perigee height: | 962 km |
apogee height: | 1010 km |
right ascension of ascending node: | 171.5348° |
argument of perigee: | 142.9739° |
revolutions per day: | 13.73703744 |
mean anomaly at epoch: | 277.6914° |
orbit number at epoch: | 67655 |
The dashed part of the orbit path shows where the satellite is in the earth's shadow,
|
|